Regional Weather Roundup
Issued by NWS Green Bay, WI

Home | Current Version | Previous Version | Text Only | Print | Product List | Glossary On
Versions: 1 2 3 4 5 6 7 8 9 10 11 12 13 14 15 16 17 18 19 20 21 22 23 24 25 26 27 28 29 30 31 32 33 34 35 36 37 38 39 40 41 42 43 44 45 46 47 48 49 50
000
ASUS43 KGRB 010410
RWRGRB

NORTH-CENTRAL AND NORTHEAST WISCONSIN REGIONAL WEATHER ROUNDUP
NATIONAL WEATHER SERVICE GREEN BAY WI
1000 PM CST SAT JAN 31 2015

WIZ005-009-010>012-018-019-010500-
NORTH CENTRAL WISCONSIN

CITY           SKY/WX    TMP DP  RH WIND       PRES   REMARKS
IRONWOOD       CLOUDY    10   7  85 NE8       30.26S WCI  -1
MANITOWISH WTR CLOUDY     9   3  76 NE7       30.23S WCI  -2
ARBOR VITAE    CLOUDY    12   4  69 NE6       30.23S WCI   3
EAGLE RIVER    CLOUDY    10   1  67 NE8       30.23R WCI  -2
LAND O LAKES   MOCLDY     8   3  79 NE9       30.24S WCI  -5
RHINELANDER    CLOUDY    12   5  73 NE6       30.21F WCI   3
PHILLIPS       CLOUDY    12   4  70 NE12      30.22F WCI  -2
ANTIGO         CLOUDY    14   8  75 NE14G22   30.20S WCI  -1
TOMAHAWK       CLOUDY    13   6  70 NE6       30.21F WCI   4
MERRILL        CLOUDY    16   7  69 NE9G16    30.21S WCI   4
$$

WIZ013-073-010500-
NORTHEAST WISCONSIN

CITY           SKY/WX    TMP DP  RH WIND       PRES   REMARKS
IRON MOUNTAIN  PTCLDY     9  -1  64 NE9       30.29R WCI  -4
MARINETTE      CLOUDY    14   3  62 NE15      30.29S WCI  -1
OCONTO         CLOUDY    17   6  64 MISG      30.29S
$$

WIZ017-030-035>037-045-010500-
CENTRAL WISCONSIN

CITY           SKY/WX    TMP DP  RH WIND       PRES   REMARKS
MEDFORD        CLOUDY    16   8  71 NE10G16   30.18S WCI   4
WAUSAU         CLOUDY    18   9  68 NE12      30.19R WCI   5
MOSINEE        CLOUDY    21  14  73 NE16      30.20R WCI   7
MARSHFIELD     CLOUDY    23  13  65 NE10      30.17S
WISC RAPIDS    CLOUDY    26  16  65 NE8       30.19S
STEVENS POINT  CLOUDY    23  16  73 NE9       30.18S
WAUPACA        CLOUDY    26  18  72 E12G20    30.22R
SHAWANO        CLOUDY    21  13  70 NE15G22   30.26R WCI   8
CLINTONVILLE   CLOUDY    23  16  74 E8        30.23S
$$

WIZ038-039-048-051-010500-
FOX VALLEY

CITY           SKY/WX    TMP DP  RH WIND       PRES   REMARKS
NWS GREEN BAY  CLOUDY    19  13  77 NE24G31   30.26S WCI   2
APPLETON       CLOUDY    21  12  68 NE16G24   30.22S WCI   7
OSHKOSH        CLOUDY    24  18  77 NE16      30.19S
FOND DU LAC    CLOUDY    27  18  69 NE10      30.18F
$$

WIZ022-050-052-010500-
EAST CENTRAL WISCONSIN

CITY           SKY/WX    TMP DP  RH WIND       PRES   REMARKS
STURGEON BAY   CLOUDY    16   5  62 NE16      30.30S WCI   0
MANITOWOC      CLOUDY    24  17  74 NE13G20   30.24S
SHEBOYGAN      CLOUDY    26  20  77 NE23G30   30.20S
$$

LMZ563-521-522-541>543-010500-
LAKESHORE

STATION/POSITION TIME  TEMP    WIND        PRES    VSBY  WAVE
                       AIR SEA DIR/SP/G                  HT/PER
                 (UTC) (F)     (DEG/KT/KT) (MB)    (MI)  (FT/S)
SHEBOYGAN LKSHOR 0400   27      30/ 25/ 28 1023.7F
KEWAUNEE LKSHORE 0400   22      30/ 18/ 27 1023.6R
NORTHPORT PIER   0400   16     350/ 20/ 22 1026.4S
SISTER BAY LKSHO 0400   15      20/ 18/ 24   N/A
CHAMBERS ISLAND  0400   15     360/ 19/ 24 1026.1R
MENOMINEE LKSHOR 0400   15      10/ 16     1026.8R
$$



USA.gov is the U.S. government's official web portal to all federal, state and local government web resources and services.